Погода в Федоровском

Россия / Тверская область     56°43′50″N   36°57′30″E
темп.,
°C
ветер,
м/с
пор.,
м/с
влажн.,
%
обл.,
%
осадки,
мм/ч
давл.,
гПа
погр.,
м
17 июня, чт
чт1700:00+12ссз227037 0.0 102034
03:00+11ссз23765 0.0 102245
06:00+13с24695 0.0 1023136
09:00+19св12475 0.0 1024643
12:00+23с11355 0.0 10241619
15:00+24сз233419 0.0 10242158
18:00+23сз23440 0.0 10242023
21:00+17зюз11650 0.0 102511
18 июня, пт
пт1800:00+14зюз11670 0.0 102611
03:00+13зюз22755 0.0 102714
06:00+15юз23745 0.0 1027103
09:00+21зюз23502 0.0 1027527
12:00+25юз333764 0.0 10261640
15:00+27зюз34365 0.0 10251891
18:00+25зюз344990 0.0 10241291
21:00+19юз247599 0.0 102567
19 июня, сб
сб1900:00+16юз27900 0.0 1026129
03:00+15юз39913 0.0 1026196
06:00+17юз398117 0.0 1026246
09:00+23зюз455923 0.0 1026656
12:00+26зюз34474 0.0 10251440
15:00+28зюз44420 0.0 10231731
18:00+26юз34500 0.0 10231332
21:00+20юз23755 0.0 102355
20 июня, вс
вс2000:00+17юз25885 0.0 102488
03:00+15юз26900 0.0 1024119
06:00+17юз26814 0.0 1024173
09:00+23ююз34575 0.0 1023572
12:00+27ююз34415 0.0 10231457
15:00+28юз34355 0.0 10211791
18:00+27зюз34500 0.0 10211404
21:00+21юз22740 0.0 102027
21 июня, пн
пн2100:00+18ююз238526 0.0 102149
03:00+17юз249526 0.0 102183
06:00+20юз26858 0.0 1021181
09:00+25зюз2364100 0.0 1021585
12:00+29юз23514 0.0 10211452
15:00+31юз24421 0.0 10202226
18:00+30з23500 0.0 10191379
21:00+23зюз22769 0.0 102020